Home > Weather > Rotherham > Past weeks

Flag for United Kingdom Weather for the Past 2 Weeks in Rotherham, England, United Kingdom

Now
59 °F

Passing clouds.


Feels Like: 57 °F
Forecast: 44 / 65 °F
Wind: 13 mph from Southwest

Location: Leeds And Bradford

Current Time: May 4, 2016 at 1:52:18 PM

Latest Report: May 4, 2016 at 1:20 PM


Visibility: N/A

Pressure: 30.21 "Hg

Humidity: 39%

Dew Point: 34 °F

Location of RotherhamLocation

Historic Weather in Rotherham — Graph

°F

Rotherham Temperature Yesterday

Maximum temperature yesterday: 52 °F (at 1:50 PM)
Minimum temperature yesterday: 41 °F (at 12:20 AM)
Average temperature yesterday: 46 °F

High & Low Weather Summary for the Past Weeks

 TemperatureHumidityPressure
High57 °F (Apr 20, 1:20 PM)100% (Apr 22, 12:50 AM)30.48 "Hg (Apr 22, 12:50 AM)
Low28 °F (Apr 28, 12:50 AM)41% (Apr 20, 1:20 PM)29.53 "Hg (Apr 29, 7:50 AM)
Average42 °F76%30.05 "Hg
* Reported Apr 19 12:20 PM — May 4 12:20 PM, Rotherham, Weather by CustomWeather, © 2016

Note: Actual official high and low records may vary slightly from our data, if they occured in-between our weather recording intervals... More about our weather records

Advertising

Rotherham Weather History for the Previous 24 Hours

Scroll right to see more
 ConditionsComfort  
Time TempWeatherWind HumidityBarometerVisibility
12:20 PM
Wed, May 4
55 °FPassing clouds.12 mph51%30.21 "HgN/A
11:50 AM55 °FPassing clouds.12 mph47%30.21 "HgN/A
11:20 AM54 °FPassing clouds.13 mph47%30.21 "HgN/A
10:20 AM52 °FPassing clouds.13 mph58%30.24 "HgN/A
9:50 AM50 °FPassing clouds.13 mph58%30.24 "HgN/A
8:50 AM48 °FPassing clouds.9 mph71%30.24 "HgN/A
8:20 AM46 °FPassing clouds.10 mph76%30.24 "HgN/A
7:20 AM45 °FPassing clouds.6 mph81%30.24 "HgN/A
6:50 AM43 °FPassing clouds.7 mph87%30.24 "HgN/A
6:20 AM39 °FClear.3 mph93%30.27 "Hg10 mi
5:20 AM41 °FClear.7 mph87%30.27 "Hg10 mi
4:50 AM39 °FClear.5 mph87%30.27 "Hg10 mi
4:20 AM41 °FClear.3 mph87%30.27 "Hg10 mi
3:50 AM41 °FClear.6 mph87%30.27 "Hg10 mi
3:20 AM41 °FClear.3 mph87%30.27 "Hg10 mi
2:50 AM41 °FClear.3 mph87%30.27 "Hg10 mi
2:20 AM39 °FClear.2 mph87%30.27 "Hg10 mi
1:50 AM39 °FClear.5 mph87%30.27 "Hg10 mi
1:20 AM39 °FClear.6 mph87%30.30 "Hg10 mi
12:50 AM39 °FClear.6 mph87%30.30 "Hg10 mi
11:50 PM
Tue, May 3
43 °FClear.2 mph76%30.30 "Hg10 mi
11:20 PM43 °FClear.3 mph81%30.30 "Hg10 mi
10:50 PM43 °FClear.3 mph81%30.30 "Hg10 mi
10:20 PM43 °FClear.2 mph81%30.30 "Hg10 mi
9:50 PM43 °FClear.2 mph81%30.30 "Hg10 mi
9:20 PM45 °FPassing clouds.6 mph76%30.27 "HgN/A
8:50 PM46 °FSunny.6 mph71%30.27 "Hg10 mi
8:20 PM46 °FPassing clouds.7 mph66%30.27 "HgN/A
7:50 PM48 °FPassing clouds.8 mph62%30.27 "HgN/A
7:20 PM48 °FPassing clouds.12 mph62%30.24 "HgN/A
6:50 PM48 °FScattered clouds.13 mph62%30.24 "HgN/A
6:20 PM50 °FScattered clouds.13 mph58%30.24 "HgN/A
5:50 PM52 °FScattered clouds.15 mph54%30.24 "HgN/A
5:20 PM52 °FScattered clouds.16 mph50%30.24 "HgN/A
4:50 PM52 °FScattered clouds.17 mph50%30.24 "HgN/A
4:20 PM52 °FScattered clouds.16 mph54%30.24 "HgN/A
3:50 PM52 °FScattered clouds.18 mph54%30.21 "HgN/A
3:20 PM50 °FScattered clouds.20 mph58%30.21 "HgN/A
2:50 PM52 °FScattered clouds.20 mph54%30.21 "HgN/A
2:20 PM50 °FScattered clouds.15 mph58%30.21 "HgN/A
1:50 PM52 °FScattered clouds.20 mph58%30.21 "HgN/A
1:20 PM46 °FScattered clouds.17 mph76%30.21 "HgN/A
Weather by CustomWeather, © 2016

See weather overviewHow to use our weather pages